Time,TemperatureF,DewpointF,PressureIn,WindDirection,WindDirectionDegrees,WindSpeedMPH,WindSpeedGustMPH,Humidity,HourlyPrecipIn,Conditions,Clouds,dailyrainin,SoftwareType,DateUTC
2013-05-04 00:05:00,66.0,42.9,29.99,North,32767,-999.0,0.0,43,0.00,,,0.00,Wunderground v.1.15,2013-05-04 04:05:00,
2013-05-04 00:10:00,65.7,42.6,29.99,North,32767,-999.0,0.0,43,0.00,,,0.00,Wunderground v.1.15,2013-05-04 04:10:00,
2013-05-04 00:15:00,65.6,42.5,29.99,North,32767,-999.0,0.0,43,0.00,,,0.00,Wunderground v.1.15,2013-05-04 04:15:00,
2013-05-04 00:25:00,65.3,42.8,29.99,North,32767,-999.0,0.0,44,0.00,,,0.00,Wunderground v.1.15,2013-05-04 04:25:00,
2013-05-04 00:30:00,65.1,42.6,29.99,North,32767,-999.0,0.0,44,0.00,,,0.00,Wunderground v.1.15,2013-05-04 04:30:00,
2013-05-04 00:35:00,65.0,42.5,29.99,North,32767,-999.0,0.0,44,0.00,,,0.00,Wunderground v.1.15,2013-05-04 04:35:00,
2013-05-04 00:45:00,64.9,42.5,29.99,North,32767,-999.0,0.0,44,0.00,,,0.00,Wunderground v.1.15,2013-05-04 04:45:00,
2013-05-04 00:55:00,64.7,42.3,29.99,North,32767,-999.0,0.0,44,0.00,,,0.00,Wunderground v.1.15,2013-05-04 04:55:00,
2013-05-04 01:00:00,64.5,42.7,29.99,North,32767,-999.0,0.0,45,0.00,,,0.00,Wunderground v.1.15,2013-05-04 05:00:00,
2013-05-04 01:05:00,64.3,42.5,29.99,North,32767,-999.0,0.0,45,0.00,,,0.00,Wunderground v.1.15,2013-05-04 05:05:00,
2013-05-04 01:15:00,64.0,42.2,29.99,North,32767,-999.0,0.0,45,0.00,,,0.00,Wunderground v.1.15,2013-05-04 05:15:00,
2013-05-04 01:20:00,64.0,42.8,29.99,North,32767,-999.0,0.0,46,0.00,,,0.00,Wunderground v.1.15,2013-05-04 05:20:00,
2013-05-04 01:25:00,63.9,42.7,29.99,North,32767,-999.0,0.0,46,0.00,,,0.00,Wunderground v.1.15,2013-05-04 05:25:00,
2013-05-04 01:35:00,63.9,42.7,29.99,North,32767,-999.0,0.0,46,0.00,,,0.00,Wunderground v.1.15,2013-05-04 05:35:00,
2013-05-04 01:45:00,63.5,42.9,29.99,North,32767,-999.0,0.0,47,0.00,,,0.00,Wunderground v.1.15,2013-05-04 05:45:00,
2013-05-04 01:50:00,63.4,43.4,29.99,North,32767,-999.0,0.0,48,0.00,,,0.00,Wunderground v.1.15,2013-05-04 05:50:00,
2013-05-04 01:55:00,63.2,43.2,29.99,North,32767,-999.0,0.0,48,0.00,,,0.00,Wunderground v.1.15,2013-05-04 05:55:00,
2013-05-04 02:05:00,63.0,43.5,29.99,North,32767,-999.0,0.0,49,0.00,,,0.00,Wunderground v.1.15,2013-05-04 06:05:00,
2013-05-04 02:15:00,62.8,43.3,29.99,North,32767,-999.0,0.0,49,0.00,,,0.00,Wunderground v.1.15,2013-05-04 06:15:00,
2013-05-04 02:25:00,62.5,43.6,29.98,North,32767,-999.0,0.0,50,0.00,,,0.00,Wunderground v.1.15,2013-05-04 06:25:00,
2013-05-04 02:30:00,62.2,43.8,29.99,North,32767,-999.0,0.0,51,0.00,,,0.00,Wunderground v.1.15,2013-05-04 06:30:00,
2013-05-04 02:35:00,62.1,43.7,29.98,North,32767,-999.0,0.0,51,0.00,,,0.00,Wunderground v.1.15,2013-05-04 06:35:00,
2013-05-04 02:45:00,62.1,43.7,29.99,North,32767,-999.0,0.0,51,0.00,,,0.00,Wunderground v.1.15,2013-05-04 06:45:00,
2013-05-04 02:55:00,61.8,44.0,29.98,North,32767,-999.0,0.0,52,0.00,,,0.00,Wunderground v.1.15,2013-05-04 06:55:00,
2013-05-04 03:00:00,61.7,43.9,29.99,North,32767,-999.0,0.0,52,0.00,,,0.00,Wunderground v.1.15,2013-05-04 07:00:00,
2013-05-04 03:05:00,61.6,43.8,29.98,North,32767,-999.0,0.0,52,0.00,,,0.00,Wunderground v.1.15,2013-05-04 07:05:00,
2013-05-04 03:15:00,61.5,44.2,29.98,North,32767,-999.0,0.0,53,0.00,,,0.00,Wunderground v.1.15,2013-05-04 07:15:00,
2013-05-04 03:25:00,61.1,44.3,29.98,North,32767,-999.0,0.0,54,0.00,,,0.00,Wunderground v.1.15,2013-05-04 07:25:00,
2013-05-04 03:35:00,60.9,44.6,29.98,North,32767,-999.0,0.0,55,0.00,,,0.00,Wunderground v.1.15,2013-05-04 07:35:00,
2013-05-04 03:40:00,60.7,44.4,29.98,North,32767,-999.0,0.0,55,0.00,,,0.00,Wunderground v.1.15,2013-05-04 07:40:00,
2013-05-04 03:50:00,60.3,44.5,29.98,North,32767,-999.0,0.0,56,0.00,,,0.00,Wunderground v.1.15,2013-05-04 07:50:00,
2013-05-04 03:55:00,60.3,44.5,29.99,North,32767,-999.0,0.0,56,0.00,,,0.00,Wunderground v.1.15,2013-05-04 07:55:00,
2013-05-04 04:05:00,60.3,44.5,29.99,North,32767,-999.0,0.0,56,0.00,,,0.00,Wunderground v.1.15,2013-05-04 08:05:00,
2013-05-04 04:15:00,60.1,44.3,29.99,North,32767,-999.0,0.0,56,0.00,,,0.00,Wunderground v.1.15,2013-05-04 08:15:00,
2013-05-04 04:20:00,59.8,44.1,29.99,North,32767,-999.0,0.0,56,0.00,,,0.00,Wunderground v.1.15,2013-05-04 08:20:00,
2013-05-04 04:30:00,60.0,44.3,29.99,North,32767,-999.0,0.0,56,0.00,,,0.00,Wunderground v.1.15,2013-05-04 08:30:00,
2013-05-04 04:35:00,60.4,44.6,29.99,North,32767,-999.0,0.0,56,0.00,,,0.00,Wunderground v.1.15,2013-05-04 08:35:00,
2013-05-04 04:45:00,60.0,44.3,29.99,North,32767,-999.0,0.0,56,0.00,,,0.00,Wunderground v.1.15,2013-05-04 08:45:00,
2013-05-04 04:55:00,59.5,44.2,29.99,North,32767,-999.0,0.0,57,0.00,,,0.00,Wunderground v.1.15,2013-05-04 08:55:00,
2013-05-04 05:00:00,59.6,43.9,30.00,North,32767,-999.0,0.0,56,0.00,,,0.00,Wunderground v.1.15,2013-05-04 09:00:00,
2013-05-04 05:05:00,59.8,44.1,30.00,North,32767,-999.0,0.0,56,0.00,,,0.00,Wunderground v.1.15,2013-05-04 09:05:00,
2013-05-04 05:15:00,59.8,44.1,30.00,North,32767,-999.0,0.0,56,0.00,,,0.00,Wunderground v.1.15,2013-05-04 09:15:00,
2013-05-04 05:25:00,59.8,44.1,30.00,North,32767,-999.0,0.0,56,0.00,,,0.00,Wunderground v.1.15,2013-05-04 09:25:00,
2013-05-04 05:35:00,59.7,44.0,29.99,North,32767,-999.0,0.0,56,0.00,,,0.00,Wunderground v.1.15,2013-05-04 09:35:00,
2013-05-04 05:40:00,59.5,44.2,29.99,North,32767,-999.0,0.0,57,0.00,,,0.00,Wunderground v.1.15,2013-05-04 09:40:00,
2013-05-04 05:50:00,59.3,44.1,30.00,North,32767,-999.0,0.0,57,0.00,,,0.00,Wunderground v.1.15,2013-05-04 09:50:00,
2013-05-04 05:55:00,59.3,44.1,30.00,North,32767,-999.0,0.0,57,0.00,,,0.00,Wunderground v.1.15,2013-05-04 09:55:00,
2013-05-04 06:05:00,59.0,44.2,30.00,North,32767,-999.0,0.0,58,0.00,,,0.00,Wunderground v.1.15,2013-05-04 10:05:00,
2013-05-04 06:15:00,59.0,44.2,30.00,North,32767,-999.0,0.0,58,0.00,,,0.00,Wunderground v.1.15,2013-05-04 10:15:00,
2013-05-04 06:25:00,58.5,44.2,30.00,North,32767,-999.0,0.0,59,0.00,,,0.00,Wunderground v.1.15,2013-05-04 10:25:00,
2013-05-04 06:30:00,58.6,44.3,30.00,North,32767,-999.0,0.0,59,0.00,,,0.00,Wunderground v.1.15,2013-05-04 10:30:00,
2013-05-04 06:35:00,58.9,44.6,30.00,North,32767,-999.0,0.0,59,0.00,,,0.00,Wunderground v.1.15,2013-05-04 10:35:00,
2013-05-04 06:45:00,58.8,44.9,30.01,North,32767,-999.0,0.0,60,0.00,,,0.00,Wunderground v.1.15,2013-05-04 10:45:00,
2013-05-04 06:55:00,58.4,45.0,30.01,North,32767,-999.0,0.0,61,0.00,,,0.00,Wunderground v.1.15,2013-05-04 10:55:00,
2013-05-04 07:00:00,58.6,44.8,30.01,North,32767,-999.0,0.0,60,0.00,,,0.00,Wunderground v.1.15,2013-05-04 11:00:00,
2013-05-04 07:10:00,58.6,44.8,30.01,North,32767,-999.0,0.0,60,0.00,,,0.00,Wunderground v.1.15,2013-05-04 11:10:00,
2013-05-04 07:15:00,58.6,45.2,30.01,North,32767,-999.0,0.0,61,0.00,,,0.00,Wunderground v.1.15,2013-05-04 11:15:00,
2013-05-04 07:25:00,58.6,45.6,30.01,North,32767,-999.0,0.0,62,0.00,,,0.00,Wunderground v.1.15,2013-05-04 11:25:00,
2013-05-04 07:35:00,59.0,45.6,30.02,North,32767,-999.0,0.0,61,0.00,,,0.00,Wunderground v.1.15,2013-05-04 11:35:00,
2013-05-04 07:45:00,59.4,45.9,30.02,North,32767,-999.0,0.0,61,0.00,,,0.00,Wunderground v.1.15,2013-05-04 11:45:00,
2013-05-04 07:55:00,59.8,46.3,30.02,North,32767,-999.0,0.0,61,0.00,,,0.00,Wunderground v.1.15,2013-05-04 11:55:00,
2013-05-04 08:05:00,60.2,46.7,30.02,North,32767,-999.0,0.0,61,0.00,,,0.00,Wunderground v.1.15,2013-05-04 12:05:00,
2013-05-04 08:15:00,60.8,47.3,30.02,North,32767,-999.0,0.0,61,0.00,,,0.00,Wunderground v.1.15,2013-05-04 12:15:00,
2013-05-04 08:25:00,61.5,47.9,30.02,North,32767,-999.0,0.0,61,0.00,,,0.00,Wunderground v.1.15,2013-05-04 12:25:00,
2013-05-04 08:35:00,61.8,47.8,30.02,North,32767,-999.0,0.0,60,0.00,,,0.00,Wunderground v.1.15,2013-05-04 12:35:00,
2013-05-04 08:40:00,61.8,48.2,30.02,North,32767,-999.0,0.0,61,0.00,,,0.00,Wunderground v.1.15,2013-05-04 12:40:00,
2013-05-04 08:45:00,61.9,48.3,30.02,North,32767,-999.0,0.0,61,0.00,,,0.00,Wunderground v.1.15,2013-05-04 12:45:00,
2013-05-04 08:55:00,62.2,48.1,30.02,North,32767,-999.0,0.0,60,0.00,,,0.00,Wunderground v.1.15,2013-05-04 12:55:00,
2013-05-04 09:05:00,62.5,48.4,30.02,North,32767,-999.0,0.0,60,0.00,,,0.00,Wunderground v.1.15,2013-05-04 13:05:00,
2013-05-04 09:15:00,62.7,49.1,30.02,North,32767,-999.0,0.0,61,0.00,,,0.00,Wunderground v.1.15,2013-05-04 13:15:00,
2013-05-04 09:20:00,62.8,49.1,30.03,NE,39,3.0,3.0,61,0.00,,,0.00,Wunderground v.1.15,2013-05-04 13:20:00,
2013-05-04 09:25:00,63.0,49.8,30.02,NNE,25,2.0,3.0,62,0.00,,,0.00,Wunderground v.1.15,2013-05-04 13:25:00,
2013-05-04 09:35:00,63.3,49.2,30.03,NNE,13,2.0,2.0,60,0.00,,,0.00,Wunderground v.1.15,2013-05-04 13:35:00,
2013-05-04 09:45:00,63.7,49.5,30.02,North,360,3.0,4.0,60,0.00,,,0.00,Wunderground v.1.15,2013-05-04 13:45:00,
2013-05-04 09:55:00,64.4,50.7,30.02,North,9,2.0,3.0,61,0.00,,,0.00,Wunderground v.1.15,2013-05-04 13:55:00,
2013-05-04 10:00:00,64.6,49.9,30.02,SE,145,3.0,5.0,59,0.00,,,0.00,Wunderground v.1.15,2013-05-04 14:00:00,
2013-05-04 10:05:00,64.7,49.6,30.02,North,5,4.0,5.0,58,0.00,,,0.00,Wunderground v.1.15,2013-05-04 14:05:00,
2013-05-04 10:15:00,65.0,50.8,30.02,South,185,4.0,7.0,60,0.00,,,0.00,Wunderground v.1.15,2013-05-04 14:15:00,
2013-05-04 10:25:00,65.5,50.8,30.02,SSE,153,3.0,4.0,59,0.00,,,0.00,Wunderground v.1.15,2013-05-04 14:25:00,
2013-05-04 10:35:00,65.4,50.7,30.02,SE,140,5.0,9.0,59,0.00,,,0.00,Wunderground v.1.15,2013-05-04 14:35:00,
2013-05-04 10:40:00,65.5,51.7,30.03,East,100,5.0,5.0,61,0.00,,,0.00,Wunderground v.1.15,2013-05-04 14:40:00,
2013-05-04 10:50:00,65.7,51.0,30.03,SE,144,4.0,4.0,59,0.00,,,0.00,Wunderground v.1.15,2013-05-04 14:50:00,
2013-05-04 11:00:00,66.2,50.5,30.03,NE,55,4.0,4.0,57,0.00,,,0.00,Wunderground v.1.15,2013-05-04 15:00:00,
2013-05-04 11:05:00,66.6,51.4,30.03,ESE,119,4.0,4.0,58,0.00,,,0.00,Wunderground v.1.15,2013-05-04 15:05:00,
2013-05-04 11:15:00,66.7,51.9,30.03,NE,53,3.0,3.0,59,0.00,,,0.00,Wunderground v.1.15,2013-05-04 15:15:00,
2013-05-04 11:25:00,67.2,52.4,30.03,NNE,30,3.0,3.0,59,0.00,,,0.00,Wunderground v.1.15,2013-05-04 15:25:00,
2013-05-04 11:35:00,66.9,51.6,30.03,NW,317,3.0,4.0,58,0.00,,,0.00,Wunderground v.1.15,2013-05-04 15:35:00,
2013-05-04 11:40:00,67.1,51.8,30.03,NNW,340,3.0,4.0,58,0.00,,,0.00,Wunderground v.1.15,2013-05-04 15:40:00,
2013-05-04 11:45:00,67.0,50.3,30.03,SSW,212,3.0,4.0,55,0.00,,,0.00,Wunderground v.1.15,2013-05-04 15:45:00,
2013-05-04 11:55:00,67.4,51.2,30.02,South,177,2.0,3.0,56,0.00,,,0.00,Wunderground v.1.15,2013-05-04 15:55:00,
2013-05-04 12:05:00,67.8,51.5,30.02,SSE,158,2.0,3.0,56,0.00,,,0.00,Wunderground v.1.15,2013-05-04 16:05:00,
2013-05-04 12:15:00,68.5,52.7,30.02,ENE,77,2.0,2.0,57,0.00,,,0.00,Wunderground v.1.15,2013-05-04 16:15:00,
2013-05-04 12:20:00,68.6,52.8,30.02,NNE,23,2.0,5.0,57,0.00,,,0.00,Wunderground v.1.15,2013-05-04 16:20:00,
2013-05-04 12:30:00,69.0,52.2,30.02,NNE,33,2.0,4.0,55,0.00,,,0.00,Wunderground v.1.15,2013-05-04 16:30:00,
2013-05-04 12:35:00,69.6,52.2,30.02,NNE,17,3.0,4.0,54,0.00,,,0.00,Wunderground v.1.15,2013-05-04 16:35:00,
2013-05-04 12:45:00,69.8,53.4,30.02,NE,46,3.0,9.0,56,0.00,,,0.00,Wunderground v.1.15,2013-05-04 16:45:00,
2013-05-04 12:55:00,70.6,53.1,30.02,NNE,28,3.0,5.0,54,0.00,,,0.00,Wunderground v.1.15,2013-05-04 16:55:00,
2013-05-04 13:05:00,71.0,53.0,30.01,East,84,4.0,4.0,53,0.00,,,0.00,Wunderground v.1.15,2013-05-04 17:05:00,
2013-05-04 13:10:00,71.1,50.4,30.01,North,9,3.0,4.0,48,0.00,,,0.00,Wunderground v.1.15,2013-05-04 17:10:00,
2013-05-04 13:15:00,70.9,53.4,30.01,WNW,299,4.0,4.0,54,0.00,,,0.00,Wunderground v.1.15,2013-05-04 17:15:00,
2013-05-04 13:25:00,70.9,51.3,30.00,ENE,57,5.0,7.0,50,0.00,,,0.00,Wunderground v.1.15,2013-05-04 17:25:00,
2013-05-04 13:35:00,71.2,52.1,30.00,West,275,6.0,8.0,51,0.00,,,0.00,Wunderground v.1.15,2013-05-04 17:35:00,
2013-05-04 13:40:00,71.1,52.0,30.00,NE,39,8.0,13.0,51,0.00,,,0.00,Wunderground v.1.15,2013-05-04 17:40:00,
2013-05-04 13:50:00,71.3,52.2,30.00,NNE,30,7.0,8.0,51,0.00,,,0.00,Wunderground v.1.15,2013-05-04 17:50:00,
2013-05-04 13:55:00,71.1,51.0,30.00,NNE,20,8.0,8.0,49,0.00,,,0.00,Wunderground v.1.15,2013-05-04 17:55:00,
2013-05-04 14:05:00,71.1,52.6,29.99,North,351,4.0,6.0,52,0.00,,,0.00,Wunderground v.1.15,2013-05-04 18:05:00,
2013-05-04 14:15:00,71.2,51.1,30.00,West,266,6.0,11.0,49,0.00,,,0.00,Wunderground v.1.15,2013-05-04 18:15:00,
2013-05-04 14:20:00,71.3,51.1,30.00,NNE,23,8.0,12.0,49,0.00,,,0.00,Wunderground v.1.15,2013-05-04 18:20:00,
2013-05-04 14:30:00,71.1,50.4,30.00,North,351,7.0,7.0,48,0.00,,,0.00,Wunderground v.1.15,2013-05-04 18:30:00,
2013-05-04 14:35:00,71.4,50.7,29.99,ENE,59,8.0,12.0,48,0.00,,,0.00,Wunderground v.1.15,2013-05-04 18:35:00,
2013-05-04 14:45:00,71.8,52.7,29.99,WNW,286,6.0,9.0,51,0.00,,,0.00,Wunderground v.1.15,2013-05-04 18:45:00,
2013-05-04 14:55:00,71.6,52.0,29.99,NE,50,8.0,9.0,50,0.00,,,0.00,Wunderground v.1.15,2013-05-04 18:55:00,
2013-05-04 15:00:00,71.8,51.6,29.99,NE,55,8.0,8.0,49,0.00,,,0.00,Wunderground v.1.15,2013-05-04 19:00:00,
2013-05-04 15:10:00,72.1,51.9,29.99,ENE,69,5.0,10.0,49,0.00,,,0.00,Wunderground v.1.15,2013-05-04 19:10:00,
2013-05-04 15:15:00,71.9,51.1,29.98,ENE,57,5.0,10.0,48,0.00,,,0.00,Wunderground v.1.15,2013-05-04 19:15:00,
2013-05-04 15:25:00,72.1,50.8,29.98,North,10,6.0,11.0,47,0.00,,,0.00,Wunderground v.1.15,2013-05-04 19:25:00,
2013-05-04 15:35:00,71.7,49.8,29.98,North,9,9.0,13.0,46,0.00,,,0.00,Wunderground v.1.15,2013-05-04 19:35:00,
2013-05-04 15:45:00,72.0,51.2,29.98,ENE,65,9.0,9.0,48,0.00,,,0.00,Wunderground v.1.15,2013-05-04 19:45:00,
2013-05-04 15:55:00,72.0,50.1,29.98,NNE,22,9.0,11.0,46,0.00,,,0.00,Wunderground v.1.15,2013-05-04 19:55:00,
2013-05-04 16:00:00,72.3,50.4,29.97,NNE,19,7.0,8.0,46,0.00,,,0.00,Wunderground v.1.15,2013-05-04 20:00:00,
2013-05-04 16:10:00,72.6,49.4,29.97,NNW,347,11.0,11.0,44,0.00,,,0.00,Wunderground v.1.15,2013-05-04 20:10:00,
2013-05-04 16:15:00,72.1,48.4,29.97,NE,46,11.0,11.0,43,0.00,,,0.00,Wunderground v.1.15,2013-05-04 20:15:00,
2013-05-04 16:25:00,71.9,48.8,29.97,NE,42,9.0,15.0,44,0.00,,,0.00,Wunderground v.1.15,2013-05-04 20:25:00,
2013-05-04 16:35:00,72.5,47.5,29.97,NNE,13,7.0,9.0,41,0.00,,,0.00,Wunderground v.1.15,2013-05-04 20:35:00,
2013-05-04 16:40:00,72.5,48.7,29.96,NE,36,8.0,10.0,43,0.00,,,0.00,Wunderground v.1.15,2013-05-04 20:40:00,
2013-05-04 16:50:00,72.7,46.3,29.97,North,360,11.0,11.0,39,0.00,,,0.00,Wunderground v.1.15,2013-05-04 20:50:00,
2013-05-04 16:55:00,73.2,48.1,29.96,ENE,76,8.0,11.0,41,0.00,,,0.00,Wunderground v.1.15,2013-05-04 20:55:00,
2013-05-04 17:05:00,72.9,45.8,29.97,NNE,33,7.0,10.0,38,0.00,,,0.00,Wunderground v.1.15,2013-05-04 21:05:00,
2013-05-04 17:15:00,73.2,46.1,29.96,NE,52,8.0,11.0,38,0.00,,,0.00,Wunderground v.1.15,2013-05-04 21:15:00,
2013-05-04 17:20:00,73.5,47.7,29.96,NE,42,9.0,10.0,40,0.00,,,0.00,Wunderground v.1.15,2013-05-04 21:20:00,
2013-05-04 17:30:00,73.5,47.0,29.96,NE,40,7.0,14.0,39,0.00,,,0.00,Wunderground v.1.15,2013-05-04 21:30:00,
2013-05-04 17:35:00,73.5,46.3,29.96,NE,46,8.0,14.0,38,0.00,,,0.00,Wunderground v.1.15,2013-05-04 21:35:00,
2013-05-04 17:45:00,73.3,45.4,29.96,North,360,8.0,11.0,37,0.00,,,0.00,Wunderground v.1.15,2013-05-04 21:45:00,
2013-05-04 17:55:00,73.3,46.2,29.96,ENE,63,8.0,11.0,38,0.00,,,0.00,Wunderground v.1.15,2013-05-04 21:55:00,
2013-05-04 18:00:00,73.1,44.5,29.96,NE,42,8.0,10.0,36,0.00,,,0.00,Wunderground v.1.15,2013-05-04 22:00:00,
2013-05-04 18:10:00,73.0,44.5,29.95,ENE,74,7.0,7.0,36,0.00,,,0.00,Wunderground v.1.15,2013-05-04 22:10:00,
2013-05-04 18:20:00,73.2,46.8,29.96,NE,55,7.0,7.0,39,0.00,,,0.00,Wunderground v.1.15,2013-05-04 22:20:00,
2013-05-04 18:25:00,73.3,46.2,29.95,NE,41,6.0,7.0,38,0.00,,,0.00,Wunderground v.1.15,2013-05-04 22:25:00,
2013-05-04 18:35:00,73.0,42.2,29.96,NE,49,6.0,6.0,33,0.00,,,0.00,Wunderground v.1.15,2013-05-04 22:35:00,
2013-05-04 18:45:00,72.8,42.8,29.96,NE,45,6.0,8.0,34,0.00,,,0.00,Wunderground v.1.15,2013-05-04 22:45:00,
2013-05-04 18:55:00,72.5,42.5,29.96,ENE,68,7.0,8.0,34,0.00,,,0.00,Wunderground v.1.15,2013-05-04 22:55:00,
2013-05-04 19:00:00,72.4,43.9,29.96,NE,39,6.0,9.0,36,0.00,,,0.00,Wunderground v.1.15,2013-05-04 23:00:00,
2013-05-04 19:10:00,72.2,44.5,29.96,ENE,62,8.0,8.0,37,0.00,,,0.00,Wunderground v.1.15,2013-05-04 23:10:00,
2013-05-04 19:20:00,71.9,44.2,29.97,ENE,61,7.0,7.0,37,0.00,,,0.00,Wunderground v.1.15,2013-05-04 23:20:00,
2013-05-04 19:25:00,71.7,44.0,29.97,NE,48,6.0,7.0,37,0.00,,,0.00,Wunderground v.1.15,2013-05-04 23:25:00,
2013-05-04 19:30:00,71.6,44.6,29.97,SE,146,6.0,6.0,38,0.00,,,0.00,Wunderground v.1.15,2013-05-04 23:30:00,
2013-05-04 19:40:00,71.3,44.4,29.97,NE,53,3.0,4.0,38,0.00,,,0.00,Wunderground v.1.15,2013-05-04 23:40:00,
2013-05-04 19:45:00,71.2,44.3,29.97,East,81,2.0,4.0,38,0.00,,,0.00,Wunderground v.1.15,2013-05-04 23:45:00,
2013-05-04 19:55:00,70.7,45.2,29.97,NNE,26,3.0,4.0,40,0.00,,,0.00,Wunderground v.1.15,2013-05-04 23:55:00,
2013-05-04 20:05:00,70.1,41.2,29.98,ESE,121,5.0,7.0,35,0.00,,,0.00,Wunderground v.1.15,2013-05-05 00:05:00,
2013-05-04 20:15:00,69.4,39.8,29.98,NE,46,4.0,4.0,34,0.00,,,0.00,Wunderground v.1.15,2013-05-05 00:15:00,
2013-05-04 20:25:00,68.8,40.0,29.99,WSW,237,2.0,3.0,35,0.00,,,0.00,Wunderground v.1.15,2013-05-05 00:25:00,
2013-05-04 20:35:00,68.6,39.8,29.99,East,92,3.0,3.0,35,0.00,,,0.00,Wunderground v.1.15,2013-05-05 00:35:00,
2013-05-04 20:40:00,68.1,40.1,29.99,East,92,2.0,2.0,36,0.00,,,0.00,Wunderground v.1.15,2013-05-05 00:40:00,
2013-05-04 20:45:00,67.8,39.9,30.00,North,32767,-999.0,2.0,36,0.00,,,0.00,Wunderground v.1.15,2013-05-05 00:45:00,
2013-05-04 20:55:00,67.4,40.9,30.00,North,32767,-999.0,0.0,38,0.00,,,0.00,Wunderground v.1.15,2013-05-05 00:55:00,
2013-05-04 21:05:00,66.9,41.1,30.01,North,32767,-999.0,0.0,39,0.00,,,0.00,Wunderground v.1.15,2013-05-05 01:05:00,
2013-05-04 21:15:00,66.2,40.5,30.01,North,32767,-999.0,0.0,39,0.00,,,0.00,Wunderground v.1.15,2013-05-05 01:15:00,
2013-05-04 21:20:00,65.6,41.3,30.01,North,32767,-999.0,0.0,41,0.00,,,0.00,Wunderground v.1.15,2013-05-05 01:20:00,
2013-05-04 21:25:00,64.4,42.0,30.01,North,32767,-999.0,0.0,44,0.00,,,0.00,Wunderground v.1.15,2013-05-05 01:25:00,
2013-05-04 21:35:00,62.8,41.7,30.02,North,32767,-999.0,0.0,46,0.00,,,0.00,Wunderground v.1.15,2013-05-05 01:35:00,
2013-05-04 21:45:00,62.3,41.2,30.02,North,32767,-999.0,0.0,46,0.00,,,0.00,Wunderground v.1.15,2013-05-05 01:45:00,
2013-05-04 21:50:00,62.2,41.2,30.02,North,32767,-999.0,0.0,46,0.00,,,0.00,Wunderground v.1.15,2013-05-05 01:50:00,
2013-05-04 21:55:00,62.0,41.0,30.02,North,32767,-999.0,0.0,46,0.00,,,0.00,Wunderground v.1.15,2013-05-05 01:55:00,
2013-05-04 22:05:00,62.5,40.9,30.03,North,32767,-999.0,0.0,45,0.00,,,0.00,Wunderground v.1.15,2013-05-05 02:05:00,
2013-05-04 22:15:00,63.2,40.9,30.03,North,32767,-999.0,0.0,44,0.00,,,0.00,Wunderground v.1.15,2013-05-05 02:15:00,
2013-05-04 22:20:00,63.4,41.1,30.03,North,32767,-999.0,0.0,44,0.00,,,0.00,Wunderground v.1.15,2013-05-05 02:20:00,
2013-05-04 22:25:00,63.5,41.2,30.03,North,32767,-999.0,0.0,44,0.00,,,0.00,Wunderground v.1.15,2013-05-05 02:25:00,
2013-05-04 22:35:00,63.4,41.1,30.03,North,32767,-999.0,0.0,44,0.00,,,0.00,Wunderground v.1.15,2013-05-05 02:35:00,
2013-05-04 22:45:00,63.0,40.7,30.03,North,32767,-999.0,0.0,44,0.00,,,0.00,Wunderground v.1.15,2013-05-05 02:45:00,
2013-05-04 22:50:00,62.5,40.9,30.03,North,32767,-999.0,0.0,45,0.00,,,0.00,Wunderground v.1.15,2013-05-05 02:50:00,
2013-05-04 22:55:00,62.2,41.2,30.04,North,32767,-999.0,0.0,46,0.00,,,0.00,Wunderground v.1.15,2013-05-05 02:55:00,
2013-05-04 23:05:00,62.1,41.1,30.04,North,32767,-999.0,0.0,46,0.00,,,0.00,Wunderground v.1.15,2013-05-05 03:05:00,
2013-05-04 23:15:00,62.6,41.5,30.03,North,32767,-999.0,0.0,46,0.00,,,0.00,Wunderground v.1.15,2013-05-05 03:15:00,
2013-05-04 23:25:00,62.5,41.4,30.03,North,32767,-999.0,0.0,46,0.00,,,0.00,Wunderground v.1.15,2013-05-05 03:25:00,
2013-05-04 23:30:00,62.3,41.2,30.03,North,32767,-999.0,0.0,46,0.00,,,0.00,Wunderground v.1.15,2013-05-05 03:30:00,
2013-05-04 23:40:00,62.0,41.5,30.03,North,32767,-999.0,0.0,47,0.00,,,0.00,Wunderground v.1.15,2013-05-05 03:40:00,
2013-05-04 23:45:00,61.8,41.9,30.03,North,32767,-999.0,0.0,48,0.00,,,0.00,Wunderground v.1.15,2013-05-05 03:45:00,
2013-05-04 23:55:00,60.4,41.7,30.03,North,32767,-999.0,0.0,50,0.00,,,0.00,Wunderground v.1.15,2013-05-05 03:55:00,